TimeCDT,TemperatureF,Dew PointF,Humidity,Sea Level PressureIn,VisibilityMPH,Wind Direction,Wind SpeedMPH,Gust SpeedMPH,PrecipitationIn,Events,Conditions,WindDirDegrees,DateUTC
12:53 AM,89.1,61.0,39,29.79,10.0,South,17.3,-,N/A,,Clear,180,2013-08-03 05:53:00
1:53 AM,87.1,60.1,40,29.80,10.0,South,16.1,-,N/A,,Clear,180,2013-08-03 06:53:00
2:53 AM,84.9,61.0,44,29.81,10.0,South,11.5,-,N/A,,Clear,180,2013-08-03 07:53:00
3:53 AM,82.9,61.0,47,29.81,10.0,South,11.5,-,N/A,,Clear,180,2013-08-03 08:53:00
4:53 AM,81.0,61.0,50,29.81,10.0,South,9.2,-,N/A,,Clear,170,2013-08-03 09:53:00
5:53 AM,79.0,61.0,54,29.82,10.0,South,9.2,-,N/A,,Clear,170,2013-08-03 10:53:00
6:53 AM,77.0,61.0,58,29.84,10.0,South,6.9,-,N/A,,Clear,170,2013-08-03 11:53:00
7:53 AM,80.1,62.1,54,29.86,10.0,South,10.4,-,N/A,,Clear,180,2013-08-03 12:53:00
8:53 AM,84.9,61.0,44,29.87,10.0,SSW,18.4,-,N/A,,Clear,200,2013-08-03 13:53:00
9:53 AM,89.1,61.0,39,29.88,10.0,SSW,17.3,-,N/A,,Clear,210,2013-08-03 14:53:00
10:53 AM,93.0,61.0,34,29.88,10.0,SW,15.0,24.2,N/A,,Clear,220,2013-08-03 15:53:00
11:53 AM,96.1,62.1,32,29.88,10.0,SSW,16.1,25.3,N/A,,Clear,210,2013-08-03 16:53:00
12:53 PM,98.1,62.1,30,29.87,10.0,SW,12.7,18.4,N/A,,Clear,220,2013-08-03 17:53:00
1:53 PM,100.0,62.1,29,29.86,10.0,SSW,9.2,19.6,N/A,,Clear,200,2013-08-03 18:53:00
2:53 PM,102.9,59.0,23,29.84,10.0,SSW,13.8,19.6,N/A,,Clear,210,2013-08-03 19:53:00
3:53 PM,102.9,57.0,22,29.83,10.0,South,10.4,-,N/A,,Clear,190,2013-08-03 20:53:00
4:53 PM,104.0,57.0,21,29.82,10.0,SSE,12.7,24.2,N/A,,Clear,150,2013-08-03 21:53:00
5:53 PM,102.9,57.0,22,29.81,10.0,SSE,18.4,23.0,N/A,,Clear,150,2013-08-03 22:53:00
6:53 PM,100.9,57.0,23,29.81,10.0,SSE,16.1,24.2,N/A,,Clear,160,2013-08-03 23:53:00
7:53 PM,97.0,61.0,30,29.83,10.0,ESE,20.7,27.6,N/A,,Clear,120,2013-08-04 00:53:00
8:53 PM,93.0,61.0,34,29.86,10.0,ESE,16.1,-,N/A,,Clear,120,2013-08-04 01:53:00
9:53 PM,90.0,60.1,37,29.89,10.0,ESE,15.0,-,N/A,,Clear,120,2013-08-04 02:53:00
10:53 PM,88.0,60.1,39,29.90,10.0,SE,15.0,-,N/A,,Clear,130,2013-08-04 03:53:00
11:53 PM,86.0,61.0,43,29.91,10.0,SE,11.5,-,N/A,,Clear,130,2013-08-04 04:53:00